Location: Bishopstone
(51.0167°N, 1.9000°W)
Time: 15:00:21
(UTC+00:00)

Meteor 1-24 Rocket - Pass Details

Date: 16 September 2019
Orbit: 791 x 926 km, 81.2° (Epoch: 17 October)

Event Time Altitude Azimuth Distance (km) Brightness Sun altitude
Rises 19:47:14 0° 352° (N) 3,420 7.3 -14.1°
Reaches altitude 10° 19:49:50 10° 1° (N) 2,502 6.4 -14.5°
Maximum altitude 19:55:03 36° 67° (ENE) 1,364 4.4 -15.2°
Enters shadow 19:57:48 24° 115° (ESE) 1,769 4.7 -15.6°
